Burlington, NC

10:40 AM EST on November 24, 2017 (GMT -0500)
Burlington-Alamance Regional

Weather History for KBUY - September, 2013

Change the Weather History Date:

Saturday, September 28, 2013

  Actual Average Record
Temperature  
Mean Temperature 62 °F -  
Max Temperature 70 °F 77 °F 93 °F (1954)
Min Temperature 53 °F 54 °F 39 °F (1989)
Degree Days  
Heating Degree Days 4    
Growing Degree Days 12 (Base 50)    
Moisture  
Dew Point 51 °F    
Average Humidity 72    
Maximum Humidity 90    
Minimum Humidity 46    
Precipitation  
Precipitation 0.01 in - - ()
Sea Level Pressure  
Sea Level Pressure 30.22 in    
Wind  
Wind Speed 4 mph (NNE)    
Max Wind Speed 15 mph    
Max Gust Speed 18 mph    
Visibility 10 miles    
Events      
Averages and records for this station are not official NWS values.
T = Trace of Precipitation, MM = Missing Value Source: NWS Daily Summary

Daily Weather History Graph

Daily Weather History Graph

Search for Another Location

Airport or City:

Trip Planner

Search our weather history database for the weather conditions in past years. The results will help you decide how hot, cold, wet, or windy it might be!

Date:

Astronomy

Sep. 28, 2013 Rise Set
Actual Time 7:10 AM EDT 7:05 PM EDT
Civil Twilight 6:45 AM EDT 7:31 PM EDT
Nautical Twilight 6:15 AM EDT 8:00 PM EDT
Astronomical Twilight 5:45 AM EDT 8:30 PM EDT
Moon 1:06 AM EDT (9/28) 3:14 PM EDT (9/28)
Length of Visible Light 12h 45m
Length of Day
11h 54m
Last Quarter, 36% of the Moon is Illuminated
Sep 28
Last Quarter
Oct 4
New
Oct 11
First Quarter
Oct 18
Full
Oct 26
Last Quarter

Hourly Weather History & Observations

Time (EDT) Temp. Dew Point Humidity Pressure Visibility Wind Dir Wind Speed Gust Speed Precip Events Conditions
12:54 AM 55.0 °F 51.1 °F 86% 30.20 in 10.0 mi NNE 3.5 mph - N/A   Clear
1:54 AM 55.0 °F 51.1 °F 86% 30.20 in 10.0 mi Calm Calm - 0.01 in   Clear
2:54 AM 54.0 °F 50.0 °F 86% 30.19 in 10.0 mi Calm Calm - N/A   Clear
3:54 AM 53.1 °F 50.0 °F 89% 30.19 in 10.0 mi Calm Calm - N/A   Clear
4:54 AM 53.1 °F 50.0 °F 89% 30.20 in 10.0 mi Calm Calm - N/A   Clear
5:54 AM 54.0 °F 50.0 °F 86% 30.21 in 10.0 mi Calm Calm - N/A   Clear
6:54 AM 53.1 °F 50.0 °F 89% 30.22 in 10.0 mi Calm Calm - N/A   Clear
7:54 AM 54.0 °F 51.1 °F 90% 30.25 in 10.0 mi North 4.6 mph - N/A   Clear
8:54 AM 59.0 °F 54.0 °F 83% 30.26 in 10.0 mi North 6.9 mph - N/A   Clear
9:54 AM 63.0 °F 54.0 °F 72% 30.28 in 10.0 mi NE 8.1 mph - N/A   Clear
10:54 AM 66.0 °F 51.1 °F 59% 30.27 in 10.0 mi NNE 10.4 mph - N/A   Scattered Clouds
11:54 AM 66.9 °F 48.0 °F 51% 30.27 in 10.0 mi NE 8.1 mph 18.4 mph N/A   Scattered Clouds
12:54 PM 70.0 °F 48.0 °F 46% 30.26 in 10.0 mi NNE 9.2 mph 16.1 mph N/A   Scattered Clouds
1:54 PM 66.9 °F 48.0 °F 51% 30.24 in 10.0 mi NNE 15.0 mph - N/A   Overcast
2:54 PM 66.0 °F 48.0 °F 52% 30.22 in 10.0 mi NNE 10.4 mph - N/A   Mostly Cloudy
3:54 PM 69.1 °F 48.9 °F 49% 30.20 in 10.0 mi NNE 5.8 mph 17.3 mph N/A   Scattered Clouds
4:54 PM 66.9 °F 48.9 °F 52% 30.19 in 10.0 mi NE 5.8 mph - N/A   Mostly Cloudy
5:54 PM 68.0 °F 50.0 °F 52% 30.19 in 10.0 mi NNE 5.8 mph - N/A   Scattered Clouds
6:54 PM 63.0 °F 50.0 °F 63% 30.20 in 10.0 mi North 4.6 mph - N/A   Clear
7:54 PM 60.1 °F 51.1 °F 72% 30.20 in 10.0 mi North 3.5 mph - N/A   Clear
8:54 PM 57.9 °F 51.1 °F 78% 30.20 in 10.0 mi NNE 4.6 mph - N/A   Clear
9:54 PM 57.0 °F 51.1 °F 81% 30.20 in 10.0 mi NNE 3.5 mph - N/A   Clear
10:54 PM 57.9 °F 53.1 °F 84% 30.19 in 10.0 mi NNE 5.8 mph - N/A   Overcast
11:44 PM 59.0 °F 53.6 °F 82% 30.20 in 10.0 mi NNE 5.8 mph - N/A   Overcast
11:54 PM 59.0 °F 53.1 °F 81% 30.19 in 10.0 mi North 6.9 mph - N/A   Overcast